{"data":{"norad_id":64903,"epoch":"2026-09-19T13:04:02.017056Z","epoch_age_seconds":104467,"freshness":"FRESH","line1":"1 64903U 25156E   26262.54446779  .00000849  00000+0  42313-4 0  9992","line2":"2 64903  97.4342 339.7798 0001284  96.7954 263.3428 15.20204918 63867","mean_motion":15.20204918,"eccentricity":0.0001284,"inclination_deg":97.4342,"raan_deg":339.7798,"arg_perigee_deg":96.7954,"mean_anomaly_deg":263.3428,"bstar":4.2313e-5,"rev_number":6386,"period_min":94.724071929361,"perigee_km":504.338153404,"apogee_km":506.10579998922,"semimajor_km":6883.3589766966,"source":"CELESTRAK","updated_at":"2026-09-20T09:00:34.132775Z"}}